TimeEDT,TemperatureF,Dew PointF,Humidity,Sea Level PressureIn,VisibilityMPH,Wind Direction,Wind SpeedMPH,Gust SpeedMPH,PrecipitationIn,Events,Conditions,WindDirDegrees,DateUTC
12:16 AM,54.5,51.1,88,29.82,10.0,Calm,Calm,-,N/A,,Scattered Clouds,0,2013-06-17 04:16:00
12:37 AM,54.3,51.1,89,29.83,10.0,North,9.2,20.7,0.01,,Scattered Clouds,10,2013-06-17 04:37:00
12:56 AM,52.7,50.4,92,29.84,10.0,NNE,6.9,-,0.01,,Scattered Clouds,20,2013-06-17 04:56:00
1:17 AM,51.3,49.3,93,29.85,10.0,NNE,5.8,-,N/A,,Scattered Clouds,20,2013-06-17 05:17:00
1:36 AM,51.3,49.6,94,29.86,10.0,Calm,Calm,-,N/A,,Scattered Clouds,0,2013-06-17 05:36:00
1:56 AM,51.4,50.0,95,29.89,10.0,WNW,4.6,-,N/A,,Mostly Cloudy,290,2013-06-17 05:56:00
2:17 AM,51.3,50.0,95,29.90,5.0,Calm,Calm,-,N/A,,Overcast,0,2013-06-17 06:17:00
2:36 AM,51.4,50.2,95,29.91,7.0,WNW,5.8,-,N/A,,Overcast,300,2013-06-17 06:36:00
2:57 AM,51.8,50.2,94,29.90,10.0,North,4.6,-,N/A,,Overcast,350,2013-06-17 06:57:00
3:16 AM,51.8,50.0,94,29.90,10.0,Calm,Calm,-,0.01,,Overcast,0,2013-06-17 07:16:00
3:36 AM,51.8,50.0,94,29.89,10.0,Calm,Calm,-,0.01,,Overcast,0,2013-06-17 07:36:00
3:57 AM,51.8,49.3,91,29.89,10.0,NE,4.6,-,0.01,,Scattered Clouds,50,2013-06-17 07:57:00
4:16 AM,50.9,49.1,94,29.90,7.0,ENE,5.8,-,N/A,,Mostly Cloudy,60,2013-06-17 08:16:00
4:36 AM,49.5,48.2,95,29.90,5.0,NE,3.5,-,N/A,,Overcast,40,2013-06-17 08:36:00
4:57 AM,48.4,46.9,95,29.91,10.0,NNE,6.9,-,N/A,,Overcast,20,2013-06-17 08:57:00
5:16 AM,47.7,46.4,95,29.91,10.0,NNE,6.9,-,N/A,,Overcast,20,2013-06-17 09:16:00
5:37 AM,46.9,45.7,95,29.92,1.2,Calm,Calm,-,N/A,,Overcast,0,2013-06-17 09:37:00
5:57 AM,46.4,45.5,97,29.92,1.8,Calm,Calm,-,N/A,,Overcast,0,2013-06-17 09:57:00
6:15 AM,46.4,44.6,93,29.93,0.5,NNE,5.8,-,N/A,Fog,Fog,20,2013-06-17 10:15:00
6:55 AM,44.6,44.6,100,29.94,7.0,NNE,13.8,-,N/A,,Overcast,20,2013-06-17 10:55:00
7:50 AM,44.6,42.8,93,29.95,7.0,North,10.4,-,N/A,,Overcast,10,2013-06-17 11:50:00
8:50 AM,44.6,42.8,93,29.95,5.0,NNE,12.7,-,N/A,,Overcast,20,2013-06-17 12:50:00
9:50 AM,46.4,42.8,87,29.97,7.0,NNE,6.9,-,N/A,,Overcast,20,2013-06-17 13:50:00
10:50 AM,46.4,42.8,87,29.97,10.0,NNE,8.1,-,N/A,,Overcast,30,2013-06-17 14:50:00
11:50 AM,48.2,44.6,87,30.00,10.0,NNE,8.1,-,N/A,,Overcast,20,2013-06-17 15:50:00
12:55 PM,48.2,42.8,82,30.00,10.0,NE,10.4,-,N/A,,Overcast,40,2013-06-17 16:55:00
1:50 PM,50.0,42.8,76,30.01,10.0,NNE,8.1,-,N/A,,Mostly Cloudy,20,2013-06-17 17:50:00
2:05 PM,50.0,42.8,76,30.01,10.0,NNE,9.2,-,N/A,,Mostly Cloudy,30,2013-06-17 18:05:00
2:50 PM,50.0,42.8,76,30.02,10.0,NNE,9.2,-,N/A,,Mostly Cloudy,30,2013-06-17 18:50:00
3:50 PM,51.8,42.8,71,30.02,10.0,NE,8.1,-,N/A,,Clear,40,2013-06-17 19:50:00
4:50 PM,51.8,42.8,71,30.01,10.0,NE,10.4,-,N/A,,Mostly Cloudy,50,2013-06-17 20:50:00
5:50 PM,53.6,42.8,67,30.01,10.0,NNE,9.2,-,N/A,,Clear,20,2013-06-17 21:50:00
6:50 PM,51.8,42.8,71,30.02,10.0,NE,9.2,-,N/A,,Scattered Clouds,40,2013-06-17 22:50:00
8:50 PM,46.4,41.0,81,30.04,10.0,East,9.2,-,N/A,,Clear,80,2013-06-18 00:50:00
9:50 PM,42.8,39.2,87,30.04,10.0,North,4.6,-,N/A,,Clear,10,2013-06-18 01:50:00
10:16 PM,41.9,39.4,91,30.05,10.0,North,3.5,-,N/A,,Clear,360,2013-06-18 02:16:00
10:37 PM,41.5,39.4,92,30.06,10.0,North,3.5,-,N/A,,Clear,350,2013-06-18 02:37:00
10:56 PM,41.9,39.2,90,30.06,10.0,NNW,3.5,-,N/A,,Clear,340,2013-06-18 02:56:00
11:17 PM,41.4,38.7,90,30.06,10.0,Calm,Calm,-,N/A,,Clear,0,2013-06-18 03:17:00
11:36 PM,41.7,39.0,90,30.07,10.0,Calm,Calm,-,N/A,,Clear,0,2013-06-18 03:36:00
11:56 PM,40.5,37.4,89,30.07,10.0,Calm,Calm,-,N/A,,Clear,0,2013-06-18 03:56:00